Regional Weather Roundup
Issued by NWS

Home | Current Version | Previous Version | Text Only | Print | Product List | Glossary Off
Versions: 1 2 3 4 5 6 7 8 9 10 11 12 13 14 15 16 17 18 19 20 21 22 23 24 25 26 27 28 29 30 31 32 33 34 35 36 37 38 39 40 41 42 43 44 45 46 47 48 49 50

000
ASUS43 KFSD 260202
RWRSD

WEATHER ROUNDUP FOR SOUTH DAKOTA
NATIONAL WEATHER SERVICE SIOUX FALLS SD
800 PM CST TUE NOV 25 2014

NOTE: "FAIR" INDICATES FEW OR NO CLOUDS BELOW 12,000 FEET WITH NO
SIGNIFICANT WEATHER AND/OR OBSTRUCTIONS TO VISIBILITY.


SDZ001>005-009-010-012>017-260300-
NORTHWEST AND NORTH CENTRAL SOUTH DAKOTA

CITY           SKY/WX    TMP DP  RH WIND       PRES   REMARKS
BUFFALO          N/A     33  26  75 NW35G46   29.80R WCI  18
FAITH            N/A     35  26  69 NW22G30   29.81R WCI  23
MOBRIDGE       CLOUDY    36  32  85 NW12      29.72S
$$

SDZ012>016-024>037-041>051-057-063-072>074-260300-
SOUTHWEST AND SOUTH CENTRAL SOUTH DAKOTA

CITY           SKY/WX    TMP DP  RH WIND       PRES   REMARKS
RAPID CTY ARPT CLOUDY    35  24  64 NW24      29.88R WCI  23
PIERRE         CLOUDY    35  33  92 W12       29.79R WCI  27
CUSTER         CLOUDY    27  16  63 NW10G30   29.85S WCI  17
ELLSWORTH AFB  PTCLDY    35  25  68 NW33G41   29.87R WCI  21
PHILIP         PTCLDY    36  30  79 NW18G26   29.85R
PINE RIDGE     CLOUDY    35  29  78 W7        29.90R WCI  29
WINNER         CLOUDY    38  33  82 W17       29.81R
$$

SDZ004>011-016>023-039-040-260300-
NORTHEAST SOUTH DAKOTA

CITY           SKY/WX    TMP DP  RH WIND       PRES   REMARKS
ABERDEEN       LGT SNOW  32  29  88 SE12      29.80S VSB 3/4 WCI  23
WATERTOWN      CLOUDY    30  23  75 SE8       29.81F WCI  22
SISSETON         N/A     25  21  85 SE7       29.87S WCI  17
$$

SDZ017-020-022-023-036>040-048>070-260300-
SOUTHEAST SOUTH DAKOTA

CITY           SKY/WX    TMP DP  RH WIND       PRES   REMARKS
SIOUX FALLS    CLOUDY    35  24  64 SE16      29.82F WCI  25
HURON          CLOUDY    33  25  72 S6        29.79R WCI  28
MITCHELL       CLOUDY    34  27  75 S6        29.78F WCI  29
YANKTON        CLOUDY    39  30  70 S12G17    29.83S
$$

ABBREVIATIONS USED IN REMARKS
   TC - TEMPERATURE IN CELSIUS
  WCI - WIND CHILL INDEX
   HX - HEAT INDEX
  VSB - VISIBILITY




USA.gov is the U.S. government's official web portal to all federal, state and local government web resources and services.